Weather History for Ashtabula, OH

Change the Weather History Date:

Tuesday, December 24, 2013

  Actual Average (KYNG) Record (KYNG)
Temperature  
Mean Temperature 22 °F 28 °F  
Max Temperature 28 °F 34 °F 63 °F (1964)
Min Temperature 10 °F 22 °F -12 °F (1983)
Degree Days  
Heating Degree Days 44 37  
Month to date heating degree days 811  
Since 1 July heating degree days 2140  
Cooling Degree Days 0 0  
Month to date cooling degree days 0  
Year to date cooling degree days 544  
Moisture  
Dew Point 13 °F    
Average Humidity 76    
Maximum Humidity 86    
Minimum Humidity 60    
Precipitation  
Precipitation 0.00 in 0.10 in 0.89 in (1979)
Month to date precipitation 2.35  
Year to date precipitation 38.27  
Snow  
Snow 0.00 in 0.50 in - ()
Month to date snowfall 11.4  
Since 1 July snowfall 15.8  
Snow Depth -    
Sea Level Pressure  
Sea Level Pressure 30.35 in    
Wind  
Wind Speed 11 mph (West)    
Max Wind Speed 17 mph    
Max Gust Speed 28 mph    
Visibility 3 miles    
Events Snow    
T = Trace of Precipitation, MM = Missing Value Source: NWS Daily Summary

Daily Weather History Graph

Daily Weather History Graph

Search for Another Location

Airport:

Trip Planner

Search our weather history database for the weather conditions in past years. The results will help you decide how hot, cold, wet, or windy it might be!

Date:

Astronomy

Dec. 24, 2013 Rise Set
Actual Time 7:48 AM EST 4:56 PM EST
Civil Twilight 7:16 AM EST 5:28 PM EST
Nautical Twilight 6:41 AM EST 6:03 PM EST
Astronomical Twilight 6:07 AM EST 6:37 PM EST
Moon No Moon Rise 11:36 AM EST (12/24)
Length of Visible Light 10h 12m
Length of Day
9h 08m
Waning Gibbous, 59% of the Moon is Illuminated
Dec 24
Waning Gibbous
Dec 25
Last Quarter
Jan 1
New
Jan 7
First Quarter
Jan 15
Full

Hourly Weather History & Observations

Time (EST) Temp. Windchill Dew Point Humidity Pressure Visibility Wind Dir Wind Speed Gust Speed Precip Events Conditions
12:53 AM 28.0 °F 18.1 °F 19.0 °F 69% 30.28 in 10.0 mi West 11.5 mph - 0.00 in   Overcast
1:53 AM 27.0 °F 16.1 °F 17.1 °F 66% 30.27 in 8.0 mi West 12.7 mph - 0.00 in Snow Light Snow
2:53 AM 26.1 °F 15.0 °F 18.0 °F 71% 30.29 in 6.0 mi West 12.7 mph - 0.00 in Snow Light Snow
3:19 AM 26.6 °F 17.5 °F 19.4 °F 74% 30.25 in 2.5 mi West 9.2 mph - 0.00 in Snow Light Snow
3:30 AM 26.6 °F 17.5 °F 19.4 °F 74% 30.25 in 3.0 mi West 9.2 mph - 0.00 in Snow Light Snow
3:37 AM 26.6 °F 19.1 °F 19.4 °F 74% 30.25 in 2.5 mi WSW 6.9 mph - 0.00 in Snow Light Snow
3:46 AM 24.8 °F 16.9 °F 19.4 °F 80% 30.24 in 3.0 mi WSW 6.9 mph - 0.00 in Snow Light Snow
3:53 AM 25.0 °F 15.5 °F 19.0 °F 78% 30.28 in 3.0 mi West 9.2 mph - 0.00 in Snow Light Snow
4:17 AM 24.8 °F 14.6 °F 19.4 °F 80% 30.24 in 2.0 mi West 10.4 mph - 0.00 in Snow Light Snow
4:27 AM 24.8 °F 14.0 °F 19.4 °F 80% 30.24 in 3.0 mi West 11.5 mph - 0.00 in Snow Light Snow
4:53 AM 25.0 °F 14.8 °F 18.0 °F 75% 30.27 in 3.0 mi West 10.4 mph 18.4 mph 0.00 in Snow Light Snow
5:05 AM 24.8 °F 15.3 °F 19.4 °F 80% 30.23 in 2.5 mi West 9.2 mph - 0.00 in Snow Light Snow
5:19 AM 24.8 °F 11.9 °F 17.6 °F 74% 30.24 in 1.5 mi West 16.1 mph 27.6 mph 0.00 in Snow Light Snow
5:24 AM 23.0 °F 11.7 °F 17.6 °F 80% 30.24 in 2.5 mi West 11.5 mph 26.5 mph 0.00 in Snow Light Snow
5:32 AM 23.0 °F 10.1 °F 17.6 °F 80% 30.24 in 3.0 mi West 15.0 mph 21.9 mph 0.00 in Snow Light Snow
5:46 AM 23.0 °F 11.1 °F 17.6 °F 80% 30.24 in 2.0 mi West 12.7 mph - 0.00 in Snow Light Snow
5:53 AM 23.0 °F 13.9 °F 18.0 °F 81% 30.28 in 1.8 mi West 8.1 mph - 0.00 in Snow Light Snow
6:08 AM 23.0 °F 13.1 °F 17.6 °F 80% 30.24 in 1.8 mi WNW 9.2 mph - 0.00 in Snow Light Snow
6:23 AM 21.2 °F 11.7 °F 17.6 °F 86% 30.25 in 2.5 mi WNW 8.1 mph - 0.00 in Snow Light Snow
6:53 AM 21.9 °F 9.2 °F 12.9 °F 68% 30.30 in 6.0 mi WNW 13.8 mph 20.7 mph 0.00 in Snow Light Snow
7:43 AM 21.2 °F 8.9 °F 14.0 °F 74% 30.27 in 2.0 mi West 12.7 mph - 0.00 in Snow Light Snow
7:53 AM 19.9 °F 7.9 °F 14.0 °F 78% 30.31 in 1.5 mi West 11.5 mph - 0.00 in Snow Light Snow
8:29 AM 19.4 °F 6.0 °F 12.2 °F 74% 30.29 in 1.8 mi West 13.8 mph 20.7 mph 0.00 in Snow Light Snow
8:36 AM 19.4 °F 7.2 °F 12.2 °F 74% 30.29 in 1.5 mi West 11.5 mph 20.7 mph 0.00 in Snow Light Snow
8:53 AM 19.0 °F 6.8 °F 12.9 °F 77% 30.33 in 1.0 mi West 11.5 mph 21.9 mph 0.00 in Snow Light Snow
9:13 AM 19.4 °F 6.6 °F 12.2 °F 74% 30.30 in 1.2 mi West 12.7 mph - 0.00 in Snow Light Snow
9:36 AM 19.4 °F 6.6 °F 12.2 °F 74% 30.31 in 0.8 mi West 12.7 mph - 0.00 in Snow Light Snow
9:53 AM 19.0 °F 7.5 °F 12.9 °F 77% 30.35 in 1.0 mi West 10.4 mph - 0.00 in Snow Light Snow
10:04 AM 19.4 °F 6.0 °F 14.0 °F 80% 30.31 in 0.8 mi West 13.8 mph 19.6 mph 0.00 in Snow Light Snow
10:17 AM 19.4 °F 8.6 °F 14.0 °F 80% 30.32 in 1.2 mi West 9.2 mph - 0.00 in Snow Light Snow
10:25 AM 19.4 °F 6.6 °F 14.0 °F 80% 30.32 in 0.5 mi West 12.7 mph - 0.00 in Snow Snow
10:50 AM 19.4 °F 7.9 °F 15.8 °F 86% 30.32 in 1.2 mi West 10.4 mph - 0.00 in Snow Light Snow
10:53 AM 19.9 °F 8.6 °F 15.1 °F 81% 30.36 in 2.0 mi West 10.4 mph - 0.00 in Snow Light Snow
11:02 AM 19.4 °F 7.9 °F 14.0 °F 80% 30.32 in 1.0 mi WNW 10.4 mph 18.4 mph 0.00 in Snow Light Snow
11:09 AM 19.4 °F 7.2 °F 14.0 °F 80% 30.32 in 0.5 mi West 11.5 mph 18.4 mph 0.00 in Snow Snow
11:15 AM 19.4 °F 6.0 °F 14.0 °F 80% 30.32 in 1.2 mi West 13.8 mph - 0.00 in Snow Light Snow
11:22 AM 19.4 °F 7.2 °F 14.0 °F 80% 30.32 in 1.8 mi West 11.5 mph 18.4 mph 0.00 in Snow Light Snow
11:25 AM 19.4 °F 6.6 °F 14.0 °F 80% 30.32 in 0.5 mi West 12.7 mph 18.4 mph 0.00 in Snow Snow
11:46 AM 19.4 °F 7.9 °F 12.2 °F 74% 30.32 in 1.2 mi West 10.4 mph 21.9 mph 0.00 in Snow Light Snow
11:50 AM 19.4 °F 7.9 °F 12.2 °F 74% 30.32 in 3.0 mi WNW 10.4 mph 21.9 mph 0.00 in Snow Light Snow
11:53 AM 21.0 °F 9.9 °F 12.9 °F 71% 30.35 in 6.0 mi WNW 10.4 mph 21.9 mph 0.00 in Snow Light Snow
12:00 PM 21.2 °F 9.5 °F 12.2 °F 68% 30.31 in 2.5 mi WNW 11.5 mph 18.4 mph 0.00 in Snow Light Snow
12:06 PM 19.4 °F 6.6 °F 12.2 °F 74% 30.32 in 1.0 mi WNW 12.7 mph - 0.00 in Snow Light Snow
12:15 PM 19.4 °F 7.2 °F 14.0 °F 80% 30.32 in 0.5 mi WNW 11.5 mph 24.2 mph 0.00 in Snow Snow
12:27 PM 19.4 °F 6.6 °F 12.2 °F 74% 30.32 in 1.2 mi West 12.7 mph 19.6 mph 0.00 in Snow Light Snow
12:30 PM 19.4 °F 6.6 °F 12.2 °F 74% 30.32 in 3.0 mi WNW 12.7 mph 19.6 mph 0.00 in Snow Light Snow
12:42 PM 21.2 °F 7.8 °F 10.4 °F 63% 30.32 in 4.0 mi NW 15.0 mph 23.0 mph 0.00 in Snow Light Snow
12:48 PM 19.4 °F 8.6 °F 10.4 °F 68% 30.32 in 1.8 mi WNW 9.2 mph 21.9 mph 0.00 in Snow Light Snow
12:53 PM 19.9 °F 5.7 °F 10.9 °F 68% 30.36 in 1.8 mi WNW 16.1 mph 24.2 mph 0.00 in Snow Light Snow
1:20 PM 19.4 °F 4.5 °F 12.2 °F 74% 30.33 in 1.0 mi West 17.3 mph 21.9 mph 0.00 in Snow Light Snow
1:26 PM 19.4 °F 6.0 °F 10.4 °F 68% 30.34 in 2.0 mi WNW 13.8 mph 21.9 mph 0.00 in Snow Light Snow
1:29 PM 19.4 °F 5.0 °F 10.4 °F 68% 30.34 in 4.0 mi West 16.1 mph 24.2 mph 0.00 in Snow Light Snow
1:37 PM 19.4 °F 5.0 °F 10.4 °F 68% 30.34 in 1.8 mi West 16.1 mph 27.6 mph 0.00 in Snow Light Snow
1:43 PM 19.4 °F 4.5 °F 12.2 °F 74% 30.35 in 0.8 mi West 17.3 mph 24.2 mph 0.00 in Snow Light Snow
1:53 PM 19.0 °F 5.6 °F 12.9 °F 77% 30.39 in 0.8 mi West 13.8 mph - 0.00 in Snow Light Snow
2:05 PM 19.4 °F 5.0 °F 12.2 °F 74% 30.35 in 0.5 mi West 16.1 mph - 0.00 in Snow Snow
2:21 PM 17.6 °F 3.2 °F 12.2 °F 79% 30.35 in 0.2 mi West 15.0 mph 21.9 mph 0.00 in Snow Heavy Snow
2:41 PM 17.6 °F 2.2 °F 12.2 °F 79% 30.36 in 1.0 mi West 17.3 mph - 0.00 in Snow Light Snow
2:49 PM 17.6 °F 3.2 °F 12.2 °F 79% 30.37 in 1.2 mi West 15.0 mph - 0.00 in Snow Light Snow
2:53 PM 18.0 °F 4.2 °F 12.0 °F 78% 30.41 in 1.2 mi West 13.8 mph - 0.00 in Snow Light Snow
3:03 PM 17.6 °F 2.2 °F 12.2 °F 79% 30.37 in 1.0 mi West 17.3 mph - 0.00 in Snow Light Snow
3:13 PM 17.6 °F 2.7 °F 12.2 °F 79% 30.38 in 0.5 mi West 16.1 mph - 0.00 in Snow Snow
3:20 PM 17.6 °F 4.3 °F 12.2 °F 79% 30.38 in 0.5 mi West 12.7 mph 20.7 mph 0.00 in Snow Snow
3:50 PM 17.6 °F 6.4 °F 12.2 °F 79% 30.40 in 1.0 mi West 9.2 mph - 0.00 in Snow Light Snow
3:53 PM 18.0 °F 6.1 °F 12.0 °F 78% 30.44 in 1.2 mi West 10.4 mph - 0.00 in Snow Light Snow
4:12 PM 17.6 °F 6.4 °F 12.2 °F 79% 30.41 in 3.0 mi West 9.2 mph - 0.00 in Snow Light Snow
4:53 PM 18.0 °F 7.7 °F 10.0 °F 71% 30.47 in 5.0 mi West 8.1 mph - 0.00 in Snow Light Snow
4:57 PM 17.6 °F 9.3 °F 10.4 °F 73% 30.42 in 2.5 mi West 5.8 mph - 0.00 in Snow Light Snow
5:04 PM 17.6 °F 7.3 °F 10.4 °F 73% 30.43 in 1.0 mi WNW 8.1 mph - 0.00 in Snow Light Snow
5:12 PM 17.6 °F 8.2 °F 12.2 °F 79% 30.43 in 0.8 mi WNW 6.9 mph - 0.00 in Snow Light Snow
5:26 PM 17.6 °F 7.3 °F 12.2 °F 79% 30.43 in 0.8 mi West 8.1 mph - 0.00 in Snow Light Snow
5:40 PM 17.6 °F 7.3 °F 12.2 °F 79% 30.44 in 1.2 mi West 8.1 mph - 0.00 in Snow Light Snow
5:44 PM 17.6 °F 7.3 °F 12.2 °F 79% 30.44 in 1.0 mi West 8.1 mph - 0.00 in Snow Light Snow
5:53 PM 17.1 °F 7.6 °F 12.9 °F 84% 30.49 in 1.2 mi West 6.9 mph - 0.00 in Snow Light Snow
6:12 PM 17.6 °F 8.2 °F 12.2 °F 79% 30.45 in 3.0 mi West 6.9 mph - 0.00 in Snow Light Snow
6:17 PM 17.6 °F 8.2 °F 12.2 °F 79% 30.45 in 1.8 mi West 6.9 mph - 0.00 in Snow Light Snow
6:29 PM 17.6 °F 8.2 °F 12.2 °F 79% 30.46 in 0.8 mi West 6.9 mph - 0.00 in Snow Light Snow
6:34 PM 17.6 °F 6.4 °F 12.2 °F 79% 30.46 in 0.8 mi WSW 9.2 mph - 0.00 in Snow Light Snow
6:42 PM 17.6 °F 6.4 °F 12.2 °F 79% 30.46 in 0.8 mi West 9.2 mph - 0.00 in Snow Light Snow
6:53 PM 18.0 °F 8.7 °F 12.0 °F 78% 30.51 in 1.0 mi West 6.9 mph - 0.00 in Snow Light Snow
6:59 PM 17.6 °F 7.3 °F 12.2 °F 79% 30.47 in 2.0 mi West 8.1 mph - 0.00 in Snow Light Snow
7:11 PM 17.6 °F 8.2 °F 10.4 °F 73% 30.47 in 5.0 mi West 6.9 mph - 0.00 in Snow Light Snow
7:53 PM 18.0 °F 6.1 °F 8.1 °F 65% 30.53 in 10.0 mi West 10.4 mph - 0.00 in   Overcast
8:53 PM 18.0 °F 8.7 °F 6.1 °F 60% 30.54 in 10.0 mi NW 6.9 mph - N/A   Overcast
9:53 PM 18.0 °F 8.7 °F 7.0 °F 62% 30.54 in 10.0 mi West 6.9 mph - N/A   Overcast
10:22 PM 17.6 °F 9.3 °F 6.8 °F 63% 30.48 in 10.0 mi WNW 5.8 mph - N/A   Overcast
10:53 PM 15.1 °F 7.7 °F 5.0 °F 64% 30.53 in 10.0 mi West 4.6 mph - N/A   Overcast
11:53 PM 10.0 °F 1.8 °F 3.0 °F 73% 30.53 in 10.0 mi WSW 4.6 mph - N/A   Mostly Cloudy